Regional Weather Roundup
Issued by NWS

Home | Current Version | Previous Version | Text Only | Print | Product List | Glossary On
Versions: 1 2 3 4 5 6 7 8 9 10 11 12 13 14 15 16 17 18 19 20 21 22 23 24 25 26 27 28 29 30 31 32 33 34 35 36 37 38 39 40 41 42 43 44 45 46 47 48 49 50
000
ASUS43 KFSD 020410
RWRSD

WEATHER ROUNDUP FOR SOUTH DAKOTA
NATIONAL WEATHER SERVICE SIOUX FALLS SD
1100 PM CDT WED JUL 01 2015

NOTE: "FAIR" INDICATES FEW OR NO CLOUDS BELOW 12,000 FEET WITH NO
SIGNIFICANT WEATHER AND/OR OBSTRUCTIONS TO VISIBILITY.


SDZ001>005-009-010-012>017-020500-
NORTHWEST AND NORTH CENTRAL SOUTH DAKOTA

CITY           SKY/WX    TMP DP  RH WIND       PRES   REMARKS
BUFFALO          N/A     67  64  90 SE9       29.96F
FAITH            N/A     67  62  84 NE7       30.00S
MOBRIDGE       MOCLDY    72  68  87 E9        29.95R
$$

SDZ012>016-024>037-041>051-057-063-072>074-020500-
SOUTHWEST AND SOUTH CENTRAL SOUTH DAKOTA

CITY           SKY/WX    TMP DP  RH WIND       PRES   REMARKS
RAPID CTY ARPT PTCLDY    68  64  87 E8        30.02R
PIERRE         MOCLDY    69  65  86 E5        29.94R
CUSTER         CLOUDY    64  61  90 E8        30.13F THUNDER FOG
ELLSWORTH AFB  MOCLDY    72  65  78 E7        30.02R
PHILIP         PTCLDY    68  65  90 NE5       29.97R
PINE RIDGE     CLOUDY    68  64  87 E5        30.02R
SPEARFISH      LGT RAIN  68  66  94 E8        30.10R
WINNER         FAIR      72  65  78 SE7       29.96R
$$

SDZ004>011-016>023-039-040-020500-
NORTHEAST SOUTH DAKOTA

CITY           SKY/WX    TMP DP  RH WIND       PRES   REMARKS
ABERDEEN       PTCLDY    66  61  84 SE7       29.97R
WATERTOWN      PTCLDY    63  53  70 SE5       29.99R
BROOKINGS      CLEAR     63  54  72 E8        30.01R
SISSETON         N/A     61  57  87 S6        29.98R
$$

SDZ017-020-022-023-036>040-048>070-020500-
SOUTHEAST SOUTH DAKOTA

CITY           SKY/WX    TMP DP  RH WIND       PRES   REMARKS
SIOUX FALLS    PTCLDY    64  55  72 E7        29.98R
HURON          PTCLDY    67  64  90 E6        29.95R
MITCHELL       PTCLDY    68  66  93 E6        29.96R
YANKTON        PTCLDY    70  63  78 E9        29.94R
$$

ABBREVIATIONS USED IN REMARKS
   TC - TEMPERATURE IN CELSIUS
  WCI - WIND CHILL INDEX
   HX - HEAT INDEX
  VSB - VISIBILITY



USA.gov is the U.S. government's official web portal to all federal, state and local government web resources and services.